Wind_Speed
131 130 129 127 125 124 123 121 119 118 116 115 114 112 110 108 106 104 103 102 101 102 103 105 107 108 108 106 105 104 103 102 99 99 100 102 105 107 110 112 114 116 117 119 120 121 123 125 126 126 127 126 125 124 124 125 128 130 131 132 133 133 132 131 131 132 132 132 133 134 135 136 137 138
124 122 121 120 118 117 116 114 112 111 110 109 108 107 105 103 101 100 99 98 97 98 99 102 104 105 106 105 103 102 101 100 98 96 97 100 103 106 108 110 112 114 116 118 119 121 122 124 126 126 127 127 127 126 125 125 126 128 130 132 132 133 132 131 131 132 132 132 133 133 133 134 136 137
117 116 115 114 113 113 111 109 107 106 105 104 103 102 100 99 98 97 96 94 94 96 97 99 101 102 103 102 102 102 100 98 96 95 95 98 101 104 106 108 110 113 115 117 118 120 122 123 125 126 127 127 128 127 126 126 125 126 128 130 131 131 131 131 132 133 133 133 133 133 132 133 135 136
114 112 111 110 110 109 107 105 103 101 100 99 99 98 97 96 95 95 94 91 91 94 95 96 98 100 100 99 100 101 100 97 94 93 94 97 100 103 105 106 107 110 113 115 117 119 120 122 123 125 125 127 128 128 128 127 126 126 126 128 129 129 130 132 133 134 133 133 133 132 132 132 133 134
110 109 108 107 106 105 104 102 100 98 97 96 96 95 94 94 93 93 92 89 89 91 93 94 95 96 96 96 98 100 99 96 93 91 93 96 99 101 103 104 105 107 110 112 114 116 118 120 122 123 124 125 126 128 128 128 127 127 126 126 127 128 130 132 133 133 133 134 133 132 131 131 131 132
106 105 104 104 103 102 101 99 98 96 94 93 93 92 92 92 92 91 89 87 87 88 90 91 92 93 93 94 96 99 98 95 92 91 92 94 98 101 102 103 103 104 106 108 111 113 116 119 120 122 123 124 125 126 127 128 127 127 127 127 126 127 128 130 131 132 133 134 134 132 131 130 130 130
104 103 101 101 101 100 98 96 95 94 92 91 91 90 90 90 90 90 88 86 85 86 88 89 89 91 91 92 94 96 96 93 91 90 91 93 96 99 101 102 102 102 102 103 106 109 113 116 118 120 121 123 123 124 125 126 127 127 127 127 127 126 127 128 130 131 132 133 133 132 131 130 129 130
102 101 100 99 98 97 95 94 93 92 91 90 89 88 88 88 89 88 87 85 85 85 86 88 88 89 90 90 92 94 93 90 89 89 90 91 94 97 99 100 100 100 99 99 101 105 109 113 115 118 119 120 122 123 123 124 125 126 127 128 127 127 126 127 128 130 131 133 132 132 131 130 129 129
99 98 98 97 96 95 93 92 91 91 90 89 88 87 87 87 87 87 86 85 84 85 86 87 88 88 88 88 90 92 90 87 87 88 89 91 92 95 96 97 97 97 96 96 98 100 104 108 112 114 116 118 119 121 122 123 124 125 126 127 127 127 127 126 126 128 130 131 131 132 132 131 129 130
96 96 95 95 94 92 91 90 89 89 89 88 86 86 86 86 86 85 85 84 83 84 85 87 87 87 86 86 88 89 87 85 85 87 88 90 91 93 94 94 94 94 94 94 95 97 100 104 107 110 112 114 116 118 120 122 123 124 125 126 126 127 127 126 126 127 129 130 130 131 132 132 130 130
93 93 93 92 91 90 89 88 88 87 87 86 85 84 84 84 84 83 83 82 82 82 84 85 86 86 85 84 85 85 84 82 84 85 87 89 90 91 91 91 91 91 92 92 93 94 97 100 103 105 107 110 112 115 118 120 122 123 123 124 125 125 126 126 126 127 129 129 129 130 131 131 131 131
90 90 90 90 89 88 87 86 86 85 85 84 84 83 83 82 82 81 81 81 80 81 82 83 84 84 82 81 82 82 81 81 82 84 85 88 89 88 87 87 88 88 89 89 90 91 93 96 99 101 103 105 108 111 114 117 120 121 122 122 122 123 124 124 126 128 129 129 129 130 130 130 130 131
86 86 87 87 86 85 84 84 84 83 82 82 82 82 81 80 80 79 79 79 79 79 80 82 82 82 80 79 79 79 79 79 81 82 84 86 86 84 84 85 85 86 87 87 87 87 89 92 95 97 98 101 104 107 110 114 117 119 120 120 120 121 121 122 125 127 129 129 129 130 130 129 130 131
83 83 84 84 83 82 81 81 81 81 80 79 80 79 78 78 77 77 77 77 77 78 79 80 80 79 78 76 76 77 78 77 79 81 82 83 82 82 82 82 82 84 86 85 85 85 87 89 90 92 95 97 100 103 106 110 112 114 116 117 118 119 119 121 123 126 128 129 130 130 129 129 128 129
81 80 80 81 80 79 78 78 78 78 77 76 77 76 76 75 75 75 75 75 76 76 77 78 77 77 76 74 74 76 76 76 78 79 79 79 79 79 80 80 80 82 83 82 82 84 85 87 87 89 92 94 97 100 102 105 107 109 112 114 116 117 118 120 121 124 126 128 129 129 129 129 128 128
78 77 76 77 77 77 76 75 75 75 74 73 74 73 73 73 73 73 73 73 74 75 76 76 75 74 73 71 72 75 75 74 76 76 76 76 76 76 77 77 78 80 79 78 79 82 84 84 85 87 89 91 93 96 99 101 103 104 107 110 112 114 117 119 120 122 124 126 127 128 129 129 128 128
74 75 74 73 74 74 74 73 72 73 73 71 71 71 70 71 71 71 71 72 73 73 74 74 73 72 70 69 71 74 74 73 73 73 72 73 74 74 74 75 76 77 75 75 78 80 81 81 82 85 87 89 91 93 95 97 98 100 102 105 108 111 114 117 118 120 122 123 125 126 128 128 128 128
71 71 71 70 71 72 72 70 70 71 71 69 69 68 68 69 69 69 69 70 71 71 71 72 70 69 68 69 71 72 72 71 70 69 70 71 71 71 72 73 74 73 72 73 77 79 79 79 81 83 85 87 89 90 92 93 94 96 99 102 105 107 111 114 116 118 119 121 123 124 126 127 127 127
68 68 68 68 68 69 70 68 68 69 69 67 66 66 67 67 67 67 67 69 69 69 69 69 67 66 67 68 70 71 70 67 67 68 68 69 69 69 69 70 71 70 70 72 75 76 77 77 79 82 83 84 85 87 88 90 91 93 96 99 101 104 107 110 112 115 116 118 121 122 124 125 126 127
65 64 65 66 67 68 68 68 67 66 65 64 63 63 65 66 65 66 67 67 67 66 66 66 65 66 67 67 68 69 66 65 66 67 67 67 67 67 67 68 68 68 68 70 73 74 75 76 78 79 80 81 82 84 86 87 88 91 94 96 98 100 103 106 108 111 113 116 118 120 121 123 124 127
61 61 63 64 66 67 68 67 65 63 63 63 61 62 64 65 65 66 66 66 65 64 64 63 63 65 66 65 66 66 64 64 65 65 65 65 65 66 66 66 66 66 67 69 71 73 74 75 76 77 78 79 80 82 83 85 87 90 93 94 95 97 99 102 104 107 109 113 115 118 120 121 123 127
57 58 61 63 65 67 66 65 63 60 60 61 61 62 64 64 65 66 65 64 63 63 62 61 62 64 64 63 65 64 62 63 64 63 63 64 65 65 65 65 65 66 66 68 69 70 72 73 74 75 75 77 78 80 81 83 85 89 91 92 93 95 97 98 101 103 106 109 113 116 118 120 123 126
55 57 60 62 64 65 62 62 60 57 57 59 60 61 63 65 66 66 64 61 61 60 60 60 61 63 62 62 63 62 61 62 63 61 62 63 64 64 64 64 65 65 66 66 67 68 69 71 71 72 73 75 76 78 80 81 84 88 89 89 91 93 94 95 97 100 103 107 110 114 117 119 122 126
54 57 59 61 64 62 58 58 56 53 53 57 59 60 62 65 66 63 59 58 59 58 58 59 61 62 61 62 62 60 60 61 61 60 61 62 63 64 64 64 64 65 65 65 65 66 67 69 70 71 72 73 75 77 78 80 83 86 87 87 89 91 91 92 95 98 101 105 109 112 116 119 123 126
52 56 59 62 62 57 52 54 54 51 51 55 57 59 62 63 61 58 56 57 58 57 58 60 61 61 61 61 60 59 58 60 60 60 60 62 63 63 63 64 64 64 64 64 64 65 66 67 68 69 70 72 74 76 77 79 82 85 85 85 87 88 89 90 93 96 100 103 107 111 114 118 123 127
51 55 59 62 59 51 48 53 54 52 52 54 56 58 60 59 56 55 56 57 57 57 59 61 61 60 60 59 58 57 57 59 59 59 60 61 62 62 63 64 64 63 63 63 63 64 65 65 67 68 70 72 74 75 76 78 81 83 84 84 85 87 88 89 92 95 99 102 106 110 114 118 122 126
51 55 58 60 54 47 47 53 55 52 51 53 56 57 56 55 54 55 55 56 56 58 60 60 59 59 58 57 56 55 56 58 59 59 60 61 61 62 63 63 63 63 63 62 62 63 64 65 66 68 70 71 73 74 75 76 79 82 82 83 84 85 87 89 91 95 98 101 104 109 113 118 121 124
52 56 59 57 50 45 47 52 53 51 50 52 54 54 53 53 53 54 54 56 58 60 60 59 58 58 57 56 55 55 56 58 59 60 60 60 60 61 62 62 63 62 62 61 62 62 63 65 66 68 69 71 72 73 74 75 78 80 81 81 82 84 85 88 90 93 96 99 103 107 112 117 121 124
54 57 57 52 45 42 46 50 51 50 50 51 51 51 51 52 53 54 55 57 59 59 58 57 57 57 56 54 54 54 56 59 60 59 59 59 59 60 61 61 61 61 60 61 61 63 64 65 66 67 69 70 71 72 73 74 76 78 79 80 81 82 84 86 89 92 95 98 102 106 111 116 120 124
55 56 52 46 42 42 45 48 50 50 49 50 50 50 51 52 53 54 56 58 59 59 57 57 56 55 54 53 54 56 58 59 58 58 58 58 58 59 59 59 59 60 60 61 62 63 64 65 66 67 68 69 70 71 72 73 75 77 78 79 79 80 82 85 87 90 93 96 100 105 110 115 119 123
53 49 44 40 41 43 45 48 49 48 48 48 48 49 51 52 54 56 57 59 58 57 56 56 55 54 53 54 56 58 58 57 57 57 57 57 57 57 58 58 58 59 60 61 62 62 63 64 65 67 68 69 70 70 71 71 73 75 76 77 78 79 81 83 85 88 91 94 98 103 108 113 118 123
45 40 36 37 40 42 44 47 47 47 47 48 49 50 52 53 55 57 58 58 57 56 56 55 55 54 55 57 57 57 56 55 56 56 56 56 56 56 56 57 57 59 60 60 61 62 63 64 66 67 68 69 69 69 69 70 72 73 75 76 77 78 79 81 84 86 89 92 96 101 105 111 116 121
37 35 36 39 41 42 45 46 46 46 47 48 49 51 53 54 56 57 57 58 57 57 57 56 55 55 56 56 56 55 54 55 56 55 55 55 55 56 56 56 57 58 59 60 61 62 63 64 66 67 67 67 68 68 69 70 71 72 73 74 75 77 78 80 83 85 88 91 94 98 103 107 112 117
34 35 39 41 41 42 44 44 44 45 46 47 49 50 52 54 56 56 57 58 58 57 56 55 55 55 55 55 55 54 53 54 54 54 55 55 55 55 55 56 56 58 59 60 61 62 63 64 65 65 66 66 67 67 68 69 70 71 72 73 75 76 77 79 82 84 87 90 93 96 100 104 109 113
34 38 40 41 41 41 42 42 43 44 45 47 48 50 51 54 55 56 56 57 57 56 55 54 54 54 54 55 54 53 52 53 54 54 55 55 55 55 55 55 56 57 59 60 61 62 63 63 64 64 65 65 66 66 67 68 69 70 72 73 74 75 76 78 81 83 86 88 91 95 98 102 105 109
35 38 39 39 39 39 40 41 42 43 45 47 48 50 52 53 54 55 55 56 56 55 54 53 53 53 54 53 53 52 52 54 54 55 55 54 54 54 54 54 55 57 59 60 61 61 62 62 63 63 64 64 65 65 66 67 69 70 71 72 73 74 76 78 80 82 85 87 90 93 96 99 103 106
33 35 36 36 37 38 40 42 43 44 46 47 48 50 52 54 54 54 54 55 54 53 53 52 52 52 52 52 51 51 52 53 54 54 54 53 52 52 53 54 55 57 58 60 60 61 61 62 62 62 62 63 64 65 66 67 68 69 70 71 72 74 75 77 79 82 84 87 89 92 94 97 100 103
31 32 33 34 36 38 40 42 43 45 46 47 49 50 52 53 53 53 53 53 52 51 51 51 51 51 51 51 51 51 52 53 54 54 53 52 52 52 53 54 55 57 58 59 60 61 61 61 61 61 60 61 63 65 66 67 68 68 69 71 72 73 75 77 79 81 84 86 88 91 93 96 99 102
29 30 31 33 36 38 40 41 43 44 46 47 48 50 51 52 52 51 51 51 50 50 50 50 49 50 50 50 50 51 52 52 53 53 53 52 51 52 53 54 55 57 58 59 60 60 60 60 60 59 59 61 64 65 66 67 67 68 69 70 71 73 74 76 79 81 84 86 88 90 93 96 98 101
28 29 30 33 36 38 39 40 42 43 45 46 47 48 49 50 50 49 49 49 48 48 48 48 48 49 49 50 50 50 51 52 53 53 52 51 51 52 53 54 55 57 58 59 59 60 59 59 58 58 60 62 64 65 66 66 67 67 68 70 71 72 74 76 78 81 83 85 88 90 92 95 97 100
27 29 31 34 36 37 39 40 41 42 43 44 45 46 47 48 47 47 47 47 46 46 46 46 47 48 49 50 50 50 51 52 52 52 51 51 51 52 53 54 55 56 58 58 58 58 58 58 58 59 61 63 64 64 64 65 66 67 68 69 71 72 73 75 77 80 82 85 87 90 92 94 96 99
28 30 32 34 36 37 38 40 41 42 43 44 45 46 46 46 46 45 45 44 43 43 44 45 46 48 49 49 50 51 52 52 52 51 51 51 51 52 53 53 54 55 57 57 57 57 58 58 59 60 61 61 62 62 62 63 65 66 68 69 70 72 73 75 77 79 82 84 86 89 91 93 95 98
28 30 33 35 37 38 39 40 42 43 43 44 45 46 46 45 45 44 44 44 43 43 44 45 46 48 49 49 50 51 51 51 51 51 50 51 51 52 52 53 53 55 56 56 57 57 57 57 58 59 59 59 59 59 60 62 64 66 68 69 70 71 72 74 76 78 80 83 85 87 90 92 94 97
27 30 33 35 36 38 39 41 42 42 43 44 45 44 44 44 44 44 44 43 43 43 44 45 47 48 49 49 50 50 50 50 50 50 50 50 51 51 52 52 53 54 55 55 56 56 56 57 57 58 58 58 58 58 59 62 64 65 67 68 68 69 70 72 74 76 78 81 83 85 87 90 93 95
27 29 32 34 35 36 38 39 40 41 42 43 43 42 42 42 42 42 42 42 42 43 44 46 47 48 48 49 50 50 50 50 50 50 50 51 51 51 51 52 53 53 54 55 55 55 56 56 56 57 57 57 57 57 59 62 63 64 65 66 66 67 68 70 72 75 77 79 81 83 85 87 90 92
Wind_Direction
271 270 270 270 269 268 268 268 267 267 266 266 266 266 265 264 264 263 262 262 261 260 259 259 258 258 257 256 255 255 254 253 252 250 249 247 244 242 241 240 240 239 239 238 238 237 236 235 234 234 233 233 232 231 230 230 229 229 229 229 228 228 228 228 229 229 229 228 228 228 228 227 228 227
270 269 269 269 268 268 267 267 266 266 266 265 265 265 264 264 263 262 262 261 260 259 258 258 257 257 257 256 255 255 253 252 251 249 248 247 246 243 241 240 239 239 238 238 238 237 236 236 235 234 233 233 232 231 230 230 229 229 229 228 228 228 228 228 229 229 229 229 228 228 228 227 228 228
270 270 269 269 269 268 267 267 266 266 265 265 264 264 264 263 262 262 261 260 260 259 257 256 256 255 255 255 255 255 253 251 249 248 247 247 246 244 242 240 239 238 238 238 237 237 236 236 235 234 233 233 232 232 231 230 229 229 228 228 228 228 228 228 228 229 229 229 229 228 228 227 228 228
270 270 269 269 268 268 267 266 266 265 265 264 264 263 263 263 262 261 260 259 258 258 257 255 255 254 254 254 254 254 253 251 249 247 246 246 246 245 244 241 239 238 238 238 237 237 237 236 235 235 234 233 232 232 231 230 229 229 229 228 227 227 227 227 227 228 228 229 229 228 228 227 227 228
270 269 269 268 268 267 267 266 265 265 264 264 263 263 262 262 261 260 259 258 257 257 256 255 254 253 253 253 253 253 253 251 249 247 246 245 245 245 244 243 241 239 238 237 237 237 237 236 236 235 234 233 232 232 231 230 230 229 229 228 227 226 226 227 227 227 228 228 229 229 228 228 227 227
269 268 268 268 267 267 266 266 265 264 264 263 262 262 261 261 261 260 259 257 256 256 255 255 254 253 252 251 252 252 252 251 250 248 246 245 245 245 244 244 242 240 238 237 237 237 237 236 236 235 234 234 233 232 232 231 230 229 229 228 227 226 226 226 226 227 227 228 229 228 228 228 228 227
268 268 267 267 266 266 265 265 264 264 263 262 261 261 260 260 260 259 258 257 256 255 255 254 253 252 251 251 251 251 251 251 250 248 246 245 244 244 244 244 243 242 240 238 237 236 236 236 236 235 235 234 233 233 232 231 231 230 229 228 228 227 226 225 225 226 227 227 228 228 228 228 228 228
268 268 267 267 266 265 265 264 264 263 262 261 260 259 259 259 259 258 258 257 256 255 255 254 253 251 251 250 250 250 250 250 249 248 247 245 244 244 244 244 243 242 241 239 237 236 236 236 236 235 235 234 233 233 233 232 231 230 229 229 228 227 226 225 225 225 226 227 227 228 228 227 227 228
268 268 267 267 266 265 265 264 264 263 262 261 260 259 258 258 258 258 257 256 256 255 255 254 253 251 250 249 249 250 250 249 249 248 247 246 244 244 244 244 243 243 241 240 238 236 236 235 235 235 235 234 233 233 233 232 231 231 230 229 228 227 227 226 225 225 225 226 226 227 227 227 226 226
268 267 267 266 266 265 265 264 263 262 262 261 260 259 258 258 257 257 257 256 255 255 254 254 252 251 250 249 249 249 249 248 248 247 246 246 245 244 244 243 243 243 242 240 238 237 236 235 235 235 234 234 233 233 232 232 231 231 230 229 228 228 227 226 225 225 225 225 225 225 226 226 225 225
267 267 266 266 265 265 264 263 262 262 261 260 260 259 258 257 257 256 256 255 254 254 253 253 252 251 249 249 249 249 248 247 246 246 246 245 245 244 243 243 243 242 241 240 238 237 236 235 235 234 234 233 233 232 232 232 231 231 230 229 229 228 227 226 225 225 224 224 224 224 225 225 225 224
266 266 265 265 264 263 263 262 261 260 260 259 259 258 257 257 256 256 255 254 254 253 252 252 251 251 249 249 248 248 247 246 246 245 245 245 245 244 243 243 242 242 241 240 238 237 236 235 234 234 233 233 232 232 232 231 231 231 230 229 229 228 227 226 225 225 224 224 223 223 224 224 224 224
264 264 264 263 263 262 261 261 260 259 258 257 257 256 256 255 255 254 254 253 253 252 251 251 251 250 249 248 248 247 246 245 245 245 245 245 245 244 243 242 241 241 240 239 238 237 235 234 234 233 232 232 231 231 231 231 231 230 230 229 229 228 227 226 225 225 224 224 223 223 223 223 223 223
263 263 263 262 262 261 260 259 258 257 256 256 256 255 255 254 254 253 252 252 252 251 250 250 250 250 249 248 247 247 246 245 245 245 244 244 244 244 243 242 241 240 239 238 237 236 235 234 233 232 232 231 231 231 231 231 230 230 230 229 229 228 227 226 226 225 224 224 223 223 222 222 222 222
263 262 262 262 261 260 259 258 257 256 255 255 254 254 253 253 252 252 251 251 250 250 249 249 249 249 248 247 247 247 246 244 244 244 244 244 243 243 242 241 240 239 238 237 236 235 234 233 232 231 231 230 230 230 230 230 230 230 229 229 228 228 227 226 225 225 224 224 223 222 222 222 221 222
261 261 260 260 260 259 258 257 256 256 254 253 253 252 251 251 250 250 249 249 249 249 248 248 248 248 247 247 246 246 245 244 244 244 244 244 243 242 241 240 239 238 237 236 235 234 233 232 231 231 230 230 229 229 229 229 229 229 228 228 228 227 227 226 225 225 224 224 223 223 222 222 221 221
259 259 259 259 259 258 257 255 255 254 253 251 251 250 250 249 249 248 248 247 247 247 247 247 247 247 247 246 245 245 245 244 244 244 243 243 242 241 240 239 238 236 235 234 233 233 232 231 230 229 229 229 228 228 228 228 228 228 228 227 227 226 226 226 225 224 224 223 223 222 222 221 221 220
257 257 258 257 257 257 256 255 253 252 252 250 249 249 248 248 247 247 246 246 246 246 246 247 246 246 246 245 244 245 244 243 243 243 242 242 241 240 238 237 236 235 233 232 232 231 230 230 229 228 228 227 227 228 228 227 227 227 227 227 226 226 225 225 225 224 223 223 222 222 221 221 220 220
256 256 256 256 255 255 255 254 252 251 250 249 248 247 247 246 245 245 245 245 245 245 246 246 245 245 244 243 243 244 244 243 242 242 241 241 240 239 237 236 236 234 232 231 231 231 229 228 228 228 227 227 226 227 227 226 226 226 226 226 225 225 225 225 224 223 223 222 222 221 221 220 219 219
255 254 254 253 253 253 252 251 250 249 249 248 246 246 245 245 244 244 244 244 244 244 245 244 244 243 243 242 242 243 243 242 241 241 240 239 239 238 237 236 235 233 231 230 230 229 228 227 227 227 227 226 226 225 225 225 224 225 225 225 225 224 224 224 223 223 222 222 221 220 220 219 218 218
255 253 252 252 251 250 250 249 248 247 247 246 245 244 244 244 243 243 243 243 243 243 243 243 242 242 242 241 242 242 241 240 240 239 239 239 238 237 236 235 234 232 231 229 229 228 227 226 226 226 226 225 225 224 224 224 223 224 225 225 224 224 223 223 222 222 221 221 220 220 219 218 217 217
254 252 251 250 249 249 248 248 247 245 244 244 243 243 243 243 242 242 242 242 242 242 242 242 241 241 241 240 241 241 240 239 239 238 238 238 237 236 235 234 232 231 230 229 228 227 227 226 225 225 225 224 224 223 223 223 223 223 224 224 224 223 223 222 221 220 220 219 219 219 218 217 216 217
252 251 249 248 248 248 247 248 247 245 244 243 243 242 242 242 242 241 241 241 242 242 242 241 241 241 240 239 240 239 238 238 238 237 237 237 236 235 234 233 231 230 229 228 227 227 226 225 224 224 224 224 223 223 222 222 222 223 223 223 223 223 222 221 220 220 218 218 218 217 217 216 215 216
250 249 249 248 247 246 246 247 247 245 243 243 242 241 241 241 241 241 241 241 241 241 241 240 240 240 239 238 238 238 236 237 237 237 236 236 236 235 233 232 231 229 228 227 226 226 225 224 223 223 223 223 223 222 221 221 222 223 222 222 222 222 221 220 220 219 218 217 216 216 215 215 215 215
249 248 248 247 247 246 245 246 246 242 240 241 241 240 240 240 240 240 240 240 240 239 239 239 239 238 237 237 237 236 236 237 237 236 236 236 235 234 232 231 230 228 227 226 225 225 224 223 222 222 222 222 222 221 221 221 222 223 222 221 221 221 220 219 219 218 217 216 215 215 214 214 214 214
246 246 247 247 247 245 244 245 245 241 238 239 239 239 239 239 239 238 237 237 237 237 237 237 237 237 236 236 236 235 235 237 237 236 235 234 233 232 231 230 228 227 226 225 224 224 223 222 221 221 221 221 221 221 220 220 221 222 222 221 220 220 219 219 218 218 217 216 214 214 213 213 213 214
242 243 244 245 245 242 241 242 243 240 238 238 238 238 237 238 237 236 235 235 235 236 236 236 236 236 235 235 235 234 235 236 236 235 234 233 231 230 230 229 227 226 224 223 223 223 222 221 220 220 220 220 221 221 220 220 221 222 222 221 220 219 219 218 218 217 217 215 214 213 213 213 213 213
240 241 242 243 242 240 239 240 241 240 238 237 237 237 236 235 235 234 233 233 234 234 235 235 235 235 234 234 234 234 235 236 235 234 233 231 230 229 228 227 226 225 223 222 221 222 221 220 220 220 220 220 220 221 220 219 220 222 222 221 220 219 219 218 218 217 216 215 214 213 213 213 213 213
238 240 241 241 240 238 237 239 240 238 237 236 236 236 235 234 233 232 232 232 233 234 234 234 234 234 234 234 234 234 234 234 234 233 232 230 229 228 227 226 225 223 222 221 220 220 220 219 219 219 220 220 220 220 220 219 220 221 222 221 221 219 219 218 218 217 216 215 214 214 213 213 213 213
237 239 240 239 236 234 234 236 237 237 236 235 235 234 233 231 230 230 229 230 231 232 233 233 233 233 233 233 233 233 233 233 232 232 231 229 228 227 226 225 223 222 220 220 219 219 219 219 219 219 220 220 220 220 219 219 220 221 221 221 220 220 219 219 218 217 217 216 215 214 213 213 213 213
240 241 241 238 235 233 233 234 235 235 235 235 234 233 231 230 229 228 228 229 230 231 232 232 232 232 232 232 232 232 232 232 231 230 229 228 228 226 225 223 222 221 220 219 219 219 218 218 218 219 219 220 220 220 219 219 219 221 221 221 220 219 219 219 219 218 217 216 216 215 214 214 214 214
243 243 240 238 235 233 232 233 234 233 233 233 231 230 229 228 227 227 227 228 229 230 230 230 230 230 230 231 232 231 231 230 230 229 228 227 227 226 224 222 221 220 219 218 218 218 218 218 218 219 219 219 220 219 219 219 219 220 221 221 220 219 219 218 218 218 218 217 216 216 215 215 215 215
244 240 236 233 232 230 230 231 231 231 231 231 230 229 227 226 226 226 226 227 228 228 228 228 228 229 230 231 231 230 230 229 228 227 226 226 225 225 223 222 220 219 218 218 218 217 217 217 218 219 219 219 220 219 219 219 219 219 220 221 220 219 218 218 218 218 218 218 217 217 216 215 215 216
240 236 234 232 231 230 231 232 231 231 231 231 230 229 228 227 226 225 226 226 227 227 228 228 228 229 229 230 230 229 228 228 227 226 226 225 224 223 222 221 220 219 218 218 217 217 217 217 218 218 219 219 220 219 219 219 219 219 219 220 220 219 219 218 218 218 218 218 218 218 217 216 216 216
236 234 234 233 232 231 232 232 231 230 229 229 228 228 227 227 226 226 226 227 227 227 228 228 228 228 228 229 228 227 226 225 225 225 225 224 223 223 222 220 219 219 218 217 217 217 217 217 217 218 218 219 220 219 219 219 219 218 219 219 219 219 219 218 218 218 218 218 218 218 218 218 217 217
237 237 236 235 233 232 231 230 229 228 228 227 227 226 226 226 226 226 226 227 227 227 227 227 227 227 227 227 227 225 224 224 224 223 223 223 222 222 221 220 219 219 218 217 217 217 217 217 217 217 218 219 219 219 219 219 219 218 218 219 219 219 219 218 218 218 218 218 218 218 218 218 218 218
238 239 238 237 235 232 231 229 227 226 226 226 226 225 225 226 226 226 226 227 227 226 227 227 226 226 227 226 225 224 223 223 223 223 223 222 221 221 221 220 219 219 218 218 217 217 217 217 217 217 217 218 219 219 219 219 219 219 218 218 219 219 219 219 219 219 218 218 218 218 219 219 219 219
237 237 237 235 234 232 231 229 227 226 226 226 225 225 226 226 227 226 226 227 227 226 226 226 225 225 225 224 223 222 221 221 222 222 222 221 220 220 221 220 219 219 218 218 217 217 217 217 217 216 216 217 218 219 219 219 219 219 219 219 218 219 219 219 219 219 219 219 219 219 219 219 220 220
234 234 233 233 232 232 231 230 228 227 227 226 226 225 226 227 227 227 227 227 226 225 225 224 224 223 224 223 222 220 220 220 221 222 221 220 220 220 220 219 219 219 218 218 218 217 217 217 217 216 216 217 218 218 219 219 219 218 219 219 219 219 219 219 220 220 220 220 220 220 220 220 220 221
230 229 229 230 230 231 230 229 228 228 228 228 227 227 227 228 228 227 227 226 225 224 223 223 222 222 222 222 220 219 219 219 220 221 220 219 219 219 219 219 219 219 219 218 218 217 217 217 217 216 216 217 217 218 218 218 219 219 218 219 219 220 219 219 220 220 220 220 220 221 221 221 221 221
227 226 227 227 228 228 228 228 228 227 227 227 227 227 227 227 227 227 226 225 224 223 222 221 221 220 220 219 218 218 218 219 219 220 219 219 219 219 219 219 219 219 219 219 218 218 218 217 217 217 217 218 217 217 217 218 219 219 219 218 219 220 220 220 220 220 221 221 221 221 222 222 222 223
226 225 225 226 226 226 226 226 226 226 226 226 225 225 225 225 225 224 224 223 222 221 220 219 219 219 219 218 217 216 217 217 218 219 218 218 219 219 220 219 219 219 219 219 219 219 218 218 218 218 218 219 218 217 217 218 218 219 219 219 218 219 220 220 221 221 221 221 221 222 222 223 223 224
228 226 226 226 225 225 225 226 226 225 225 225 225 224 224 224 223 222 221 221 219 218 218 217 217 217 217 216 215 216 216 217 217 218 218 218 218 219 219 219 219 219 219 219 218 219 219 219 219 219 220 220 219 218 217 218 218 219 220 220 219 218 219 220 221 221 222 222 223 222 223 223 224 224
230 229 229 228 227 226 225 226 226 226 226 226 226 225 224 224 223 222 221 219 217 216 215 215 214 214 214 214 214 215 216 216 216 216 217 217 217 218 219 219 219 219 219 218 218 218 219 220 221 221 221 220 219 219 218 218 219 219 220 221 220 220 219 220 220 221 222 223 224 224 224 224 224 225
230 230 231 231 230 229 228 228 228 228 228 228 228 227 226 224 223 222 221 218 216 215 214 213 213 213 213 213 213 214 214 215 215 215 215 216 216 217 218 218 218 218 218 218 218 218 218 219 221 222 222 222 220 220 220 220 219 219 220 221 222 222 222 221 221 221 222 223 224 225 226 226 226 226
Height
10109 10107 10108 10109 10110 10110 10109 10109 10111 10110 10111 10112 10112 10114 10116 10119 10124 10124 10123 10127 10127 10124 10123 10121 10118 10117 10120 10128 10136 10140 10143 10148 10153 10157 10160 10164 10169 10174 10181 10188 10195 10201 10206 10212 10220 10227 10234 10242 10250 10258 10267 10276 10285 10294 10303 10311 10320 10330 10339 10348 10357 10365 10374 10385 10395 10401 10409 10420 10429 10439 10451 10461 10469 10478
10086 10086 10087 10087 10087 10087 10086 10088 10091 10091 10092 10093 10093 10095 10097 10100 10105 10106 10105 10109 10109 10107 10106 10103 10100 10101 10103 10110 10118 10124 10127 10131 10136 10142 10144 10146 10150 10156 10164 10171 10177 10183 10189 10196 10203 10209 10215 10223 10232 10241 10250 10259 10268 10277 10287 10295 10304 10313 10322 10332 10341 10350 10362 10374 10381 10385 10394 10405 10414 10425 10436 10446 10454 10463
10064 10065 10066 10065 10065 10065 10065 10068 10071 10071 10073 10074 10074 10077 10079 10082 10086 10087 10088 10093 10092 10087 10087 10086 10084 10086 10090 10095 10101 10105 10110 10115 10121 10126 10129 10130 10132 10138 10146 10154 10161 10166 10172 10179 10185 10191 10198 10205 10214 10223 10232 10242 10251 10260 10270 10280 10288 10297 10306 10315 10326 10339 10352 10360 10364 10368 10379 10389 10399 10410 10421 10431 10439 10448
10042 10043 10044 10044 10044 10044 10045 10049 10052 10053 10054 10056 10057 10059 10062 10064 10067 10068 10070 10077 10076 10069 10068 10070 10069 10071 10076 10081 10085 10087 10092 10099 10106 10111 10113 10114 10116 10121 10128 10136 10143 10150 10155 10162 10169 10175 10182 10189 10196 10206 10215 10225 10234 10243 10253 10263 10273 10281 10290 10300 10312 10325 10335 10340 10344 10353 10364 10373 10382 10395 10407 10417 10426 10435
10021 10023 10024 10024 10024 10024 10026 10030 10032 10034 10037 10038 10040 10042 10044 10047 10049 10050 10053 10059 10059 10054 10052 10053 10054 10057 10063 10067 10069 10070 10075 10082 10090 10096 10098 10099 10101 10105 10111 10118 10126 10133 10140 10147 10154 10160 10166 10173 10180 10189 10198 10207 10216 10226 10236 10247 10257 10266 10275 10285 10296 10306 10314 10322 10330 10340 10350 10358 10367 10380 10392 10403 10413 10422
10001 10003 10005 10006 10005 10005 10008 10011 10013 10016 10019 10021 10024 10025 10027 10030 10031 10033 10037 10041 10042 10039 10037 10037 10040 10044 10048 10052 10054 10055 10060 10067 10074 10080 10083 10085 10087 10090 10095 10101 10109 10117 10124 10132 10139 10146 10151 10157 10163 10172 10180 10190 10199 10209 10220 10230 10241 10251 10260 10269 10279 10288 10297 10307 10317 10326 10335 10343 10353 10366 10378 10389 10399 10409
9982 9985 9987 9987 9986 9987 9990 9993 9996 9998 10001 10003 10007 10009 10011 10013 10015 10017 10020 10024 10026 10025 10022 10023 10027 10029 10032 10037 10040 10042 10047 10053 10058 10064 10067 10070 10073 10075 10080 10086 10092 10100 10109 10117 10125 10131 10135 10141 10147 10155 10164 10174 10184 10194 10204 10215 10225 10235 10244 10253 10263 10273 10282 10291 10301 10312 10321 10329 10339 10352 10363 10374 10385 10393
9964 9967 9969 9969 9968 9970 9973 9977 9979 9981 9983 9986 9989 9993 9995 9997 9999 10001 10004 10008 10010 10010 10009 10009 10011 10014 10018 10023 10027 10028 10034 10040 10044 10048 10052 10055 10058 10061 10065 10072 10077 10085 10094 10102 10110 10116 10120 10126 10132 10140 10149 10159 10168 10178 10188 10199 10209 10219 10228 10237 10247 10257 10266 10276 10288 10297 10305 10314 10325 10337 10347 10359 10371 10379
9947 9949 9950 9951 9951 9954 9957 9960 9962 9963 9965 9969 9973 9977 9979 9981 9984 9986 9989 9993 9994 9995 9995 9994 9995 10000 10004 10010 10013 10016 10022 10027 10031 10033 10036 10039 10043 10047 10051 10058 10064 10071 10080 10088 10094 10101 10106 10111 10117 10125 10134 10143 10153 10162 10172 10182 10192 10201 10211 10220 10231 10242 10251 10263 10274 10283 10290 10299 10311 10321 10330 10342 10356 10364
9930 9932 9933 9933 9935 9938 9941 9943 9945 9946 9949 9953 9957 9961 9963 9965 9968 9972 9975 9977 9979 9981 9980 9979 9980 9985 9991 9996 10000 10004 10009 10015 10017 10019 10021 10025 10029 10033 10038 10045 10051 10058 10066 10073 10079 10085 10091 10097 10104 10112 10120 10129 10138 10147 10157 10166 10174 10184 10193 10204 10215 10226 10236 10248 10260 10268 10275 10285 10296 10305 10314 10326 10340 10350
9914 9915 9916 9917 9919 9922 9925 9927 9929 9931 9934 9938 9941 9944 9947 9950 9954 9957 9959 9962 9964 9966 9965 9965 9966 9970 9977 9984 9988 9991 9997 10001 10003 10005 10008 10011 10014 10019 10026 10033 10039 10045 10052 10058 10065 10071 10077 10084 10090 10098 10106 10115 10124 10132 10140 10148 10157 10166 10176 10187 10199 10210 10222 10234 10245 10253 10261 10271 10281 10290 10299 10311 10324 10336
9898 9899 9900 9901 9904 9906 9909 9911 9914 9917 9920 9923 9926 9929 9932 9935 9939 9942 9944 9947 9950 9951 9951 9951 9952 9957 9965 9972 9975 9979 9984 9987 9989 9993 9996 9996 9999 10008 10015 10020 10027 10033 10038 10044 10050 10057 10064 10070 10076 10084 10093 10102 10109 10116 10123 10131 10140 10150 10160 10171 10183 10195 10207 10220 10230 10237 10246 10257 10266 10275 10284 10296 10308 10320
9884 9884 9885 9886 9888 9891 9894 9897 9899 9902 9906 9909 9911 9914 9917 9921 9925 9928 9930 9933 9935 9937 9938 9938 9940 9945 9953 9959 9963 9966 9970 9974 9976 9980 9982 9983 9989 9998 10003 10008 10015 10019 10023 10030 10038 10045 10051 10056 10063 10071 10080 10087 10093 10099 10107 10115 10124 10134 10145 10157 10169 10180 10192 10204 10213 10221 10231 10241 10251 10260 10270 10282 10294 10305
9870 9870 9870 9871 9874 9877 9880 9883 9885 9888 9892 9895 9898 9900 9904 9908 9911 9914 9916 9919 9921 9923 9924 9925 9929 9934 9940 9946 9951 9953 9957 9961 9964 9967 9970 9974 9980 9987 9990 9995 10002 10005 10009 10017 10026 10033 10037 10042 10051 10059 10065 10072 10078 10086 10093 10101 10109 10121 10132 10143 10154 10165 10177 10187 10196 10206 10216 10225 10236 10247 10257 10268 10280 10290
9854 9856 9858 9858 9860 9863 9866 9869 9871 9874 9879 9882 9885 9887 9891 9894 9897 9900 9903 9905 9907 9910 9911 9913 9918 9923 9927 9934 9939 9940 9944 9949 9951 9954 9959 9964 9970 9975 9977 9984 9989 9992 9997 10007 10014 10020 10024 10030 10039 10045 10051 10059 10066 10073 10080 10087 10097 10108 10118 10129 10140 10150 10161 10170 10180 10190 10200 10210 10221 10233 10243 10254 10266 10277
9841 9842 9844 9845 9847 9849 9852 9855 9857 9860 9865 9869 9872 9875 9878 9881 9884 9887 9890 9892 9895 9897 9899 9902 9906 9911 9916 9923 9927 9927 9931 9936 9939 9944 9950 9953 9958 9963 9966 9972 9976 9979 9988 9997 10003 10007 10011 10019 10027 10032 10039 10047 10053 10059 10067 10075 10085 10095 10104 10114 10124 10135 10145 10154 10165 10175 10185 10195 10208 10220 10230 10240 10253 10264
9829 9829 9831 9833 9834 9835 9838 9842 9845 9847 9850 9856 9859 9862 9866 9869 9871 9874 9877 9880 9882 9885 9888 9891 9895 9900 9907 9912 9914 9915 9919 9924 9929 9935 9940 9942 9947 9951 9956 9960 9963 9969 9980 9987 9989 9993 9999 10007 10015 10020 10026 10034 10040 10047 10055 10064 10074 10082 10091 10100 10110 10120 10129 10138 10150 10160 10170 10182 10194 10205 10216 10227 10239 10251
9817 9818 9819 9821 9822 9823 9825 9829 9832 9834 9837 9843 9847 9851 9854 9856 9859 9862 9865 9868 9870 9874 9877 9879 9885 9892 9896 9899 9902 9903 9907 9914 9920 9925 9928 9931 9935 9940 9945 9949 9953 9961 9971 9975 9976 9981 9989 9997 10003 10008 10014 10021 10029 10036 10044 10054 10063 10070 10078 10087 10096 10105 10115 10124 10135 10146 10157 10168 10179 10190 10203 10214 10226 10238
9803 9806 9808 9810 9811 9812 9814 9817 9820 9822 9826 9831 9837 9840 9842 9844 9847 9851 9854 9856 9859 9863 9866 9870 9876 9882 9884 9886 9890 9893 9897 9906 9911 9914 9916 9920 9925 9929 9934 9939 9944 9952 9959 9962 9965 9971 9979 9985 9991 9996 10003 10011 10019 10027 10035 10043 10052 10058 10064 10073 10083 10092 10101 10111 10122 10133 10144 10155 10165 10177 10189 10201 10214 10225
9791 9794 9796 9798 9799 9800 9801 9803 9807 9811 9816 9821 9826 9828 9830 9832 9836 9839 9842 9845 9849 9853 9856 9860 9867 9870 9872 9875 9880 9883 9889 9896 9900 9902 9906 9910 9915 9920 9925 9930 9935 9942 9947 9951 9955 9961 9968 9974 9981 9987 9994 10003 10011 10018 10024 10032 10040 10046 10052 10061 10071 10079 10089 10099 10109 10121 10132 10142 10152 10164 10176 10188 10201 10210
9779 9782 9784 9785 9786 9787 9788 9791 9796 9802 9806 9810 9815 9817 9818 9821 9824 9827 9831 9835 9839 9842 9846 9852 9857 9859 9861 9866 9870 9875 9880 9885 9888 9892 9897 9902 9906 9910 9915 9921 9926 9931 9936 9941 9945 9951 9958 9965 9972 9978 9986 9993 10001 10007 10014 10021 10029 10035 10041 10050 10059 10067 10076 10086 10097 10108 10120 10129 10139 10151 10162 10175 10186 10195
9767 9769 9770 9771 9772 9774 9777 9781 9786 9792 9796 9799 9803 9805 9807 9810 9813 9815 9820 9826 9829 9833 9838 9843 9847 9848 9852 9857 9861 9866 9871 9875 9879 9884 9889 9892 9896 9900 9906 9912 9917 9922 9926 9931 9936 9943 9950 9957 9963 9970 9977 9984 9991 9997 10004 10012 10018 10023 10031 10039 10047 10055 10064 10075 10085 10095 10106 10116 10126 10138 10149 10161 10172 10179
9755 9755 9757 9758 9759 9761 9766 9771 9776 9783 9787 9789 9792 9794 9797 9799 9800 9804 9812 9818 9822 9826 9830 9834 9837 9839 9843 9848 9852 9857 9862 9866 9870 9875 9879 9883 9887 9892 9897 9903 9907 9912 9917 9923 9929 9936 9942 9949 9955 9962 9968 9975 9982 9988 9995 10002 10007 10012 10020 10029 10037 10044 10054 10064 10074 10083 10093 10103 10114 10125 10136 10147 10157 10165
9742 9742 9744 9745 9746 9751 9758 9762 9766 9773 9777 9778 9781 9785 9787 9787 9790 9799 9808 9811 9813 9817 9822 9825 9827 9830 9834 9838 9843 9848 9853 9857 9862 9867 9871 9874 9878 9883 9889 9893 9898 9904 9909 9916 9922 9928 9934 9941 9948 9954 9960 9966 9972 9979 9985 9991 9996 10002 10011 10020 10027 10034 10043 10054 10063 10071 10081 10091 10101 10111 10122 10133 10143 10151
9731 9731 9732 9732 9735 9743 9751 9753 9756 9763 9766 9767 9771 9774 9775 9778 9786 9796 9800 9801 9804 9809 9812 9815 9817 9820 9825 9830 9835 9841 9846 9849 9853 9858 9862 9866 9870 9875 9880 9885 9890 9896 9902 9909 9915 9920 9926 9933 9940 9945 9951 9957 9963 9969 9975 9981 9986 9992 10001 10010 10017 10025 10034 10043 10051 10060 10069 10079 10089 10099 10110 10120 10129 10137
9720 9720 9720 9721 9728 9739 9745 9745 9746 9752 9756 9758 9760 9763 9767 9774 9782 9788 9789 9791 9795 9799 9801 9804 9807 9812 9817 9823 9828 9834 9838 9840 9844 9849 9853 9857 9862 9866 9871 9876 9882 9888 9894 9901 9907 9912 9919 9926 9932 9937 9942 9948 9953 9959 9966 9972 9977 9983 9991 10000 10008 10016 10024 10033 10040 10048 10057 10067 10078 10088 10097 10107 10116 10124
9709 9710 9710 9713 9723 9734 9737 9735 9736 9742 9747 9749 9751 9755 9762 9769 9774 9777 9780 9783 9786 9788 9790 9795 9799 9804 9810 9816 9822 9827 9830 9832 9835 9840 9843 9848 9853 9858 9862 9868 9874 9880 9887 9894 9899 9905 9912 9918 9923 9928 9933 9939 9944 9951 9958 9964 9969 9974 9982 9990 9999 10006 10015 10023 10030 10038 10047 10057 10067 10077 10086 10094 10104 10113
9700 9700 9701 9707 9718 9726 9727 9726 9729 9734 9738 9740 9743 9749 9757 9761 9764 9768 9771 9773 9775 9778 9782 9787 9792 9798 9804 9809 9815 9819 9822 9823 9826 9830 9834 9840 9845 9850 9854 9860 9866 9873 9880 9887 9893 9898 9904 9910 9914 9920 9925 9931 9937 9943 9950 9956 9961 9966 9974 9982 9990 9999 10006 10014 10021 10029 10038 10048 10058 10067 10076 10084 10092 10102
9689 9690 9694 9703 9712 9717 9718 9719 9722 9726 9730 9733 9737 9744 9749 9752 9756 9759 9761 9764 9766 9770 9775 9781 9786 9792 9797 9803 9808 9811 9812 9813 9817 9822 9827 9833 9838 9843 9847 9853 9859 9866 9873 9879 9885 9890 9895 9901 9906 9912 9918 9923 9929 9935 9942 9948 9953 9959 9966 9973 9982 9990 9998 10005 10013 10021 10030 10039 10049 10058 10066 10074 10083 10092
9678 9681 9689 9699 9705 9707 9709 9711 9713 9717 9722 9726 9732 9737 9740 9743 9746 9749 9751 9754 9758 9763 9769 9774 9780 9786 9792 9796 9800 9800 9801 9805 9811 9816 9820 9825 9830 9835 9840 9846 9853 9859 9865 9871 9876 9882 9887 9894 9900 9905 9910 9916 9922 9928 9935 9941 9947 9952 9958 9966 9974 9982 9990 9997 10005 10013 10022 10031 10040 10049 10057 10065 10073 10081
9673 9680 9689 9695 9697 9699 9701 9703 9706 9710 9715 9720 9725 9729 9732 9734 9737 9740 9742 9746 9751 9758 9763 9768 9774 9780 9784 9787 9788 9790 9794 9800 9805 9809 9813 9818 9824 9828 9834 9840 9846 9851 9857 9863 9869 9875 9881 9887 9892 9897 9902 9908 9914 9921 9928 9935 9940 9945 9952 9959 9967 9974 9982 9990 9998 10006 10014 10023 10032 10041 10049 10056 10063 10070
9672 9681 9687 9688 9689 9692 9694 9696 9699 9703 9708 9712 9716 9720 9722 9725 9728 9731 9735 9740 9746 9752 9757 9761 9767 9772 9774 9777 9780 9784 9789 9794 9798 9802 9807 9812 9817 9821 9827 9833 9839 9844 9850 9856 9862 9868 9874 9879 9884 9889 9895 9901 9908 9915 9922 9928 9933 9939 9945 9952 9959 9967 9975 9982 9990 9998 10006 10015 10023 10031 10039 10047 10054 10061
9672 9677 9679 9679 9681 9684 9686 9688 9692 9696 9700 9704 9708 9711 9714 9716 9719 9723 9729 9734 9739 9743 9748 9754 9759 9763 9766 9770 9774 9779 9784 9787 9791 9796 9801 9805 9809 9814 9820 9826 9831 9837 9843 9849 9855 9861 9866 9871 9876 9883 9889 9895 9901 9908 9915 9921 9927 9933 9938 9945 9952 9960 9967 9975 9983 9990 9997 10005 10014 10021 10030 10038 10045 10052
9668 9669 9669 9671 9674 9677 9680 9683 9687 9691 9694 9698 9701 9704 9707 9709 9712 9717 9722 9727 9731 9737 9742 9747 9752 9756 9760 9763 9767 9772 9777 9781 9785 9790 9794 9798 9802 9807 9813 9819 9825 9830 9836 9842 9848 9854 9859 9865 9871 9877 9883 9888 9895 9902 9908 9914 9920 9926 9931 9937 9944 9951 9958 9966 9973 9980 9988 9996 10004 10011 10020 10028 10036 10043
9661 9661 9662 9665 9668 9672 9675 9678 9681 9685 9688 9691 9694 9697 9700 9702 9706 9712 9717 9721 9726 9731 9737 9741 9745 9750 9753 9757 9761 9766 9771 9774 9779 9783 9787 9792 9796 9801 9806 9812 9818 9824 9830 9836 9842 9847 9853 9859 9865 9871 9877 9882 9888 9895 9901 9907 9913 9919 9924 9930 9936 9943 9950 9957 9964 9971 9979 9987 9994 10001 10009 10017 10025 10033
9654 9655 9657 9660 9663 9666 9669 9671 9675 9678 9681 9684 9687 9690 9692 9695 9700 9706 9711 9715 9720 9726 9731 9735 9739 9743 9746 9751 9755 9761 9765 9768 9772 9776 9780 9785 9791 9796 9801 9806 9812 9818 9824 9830 9836 9841 9847 9853 9859 9865 9871 9876 9882 9888 9894 9899 9905 9911 9917 9923 9929 9935 9942 9949 9956 9963 9970 9977 9985 9992 9999 10006 10014 10023
9648 9650 9653 9656 9658 9660 9662 9665 9668 9671 9674 9677 9681 9683 9686 9689 9694 9700 9705 9709 9714 9720 9725 9729 9733 9737 9741 9745 9750 9754 9758 9762 9766 9770 9775 9780 9786 9790 9795 9801 9806 9812 9818 9823 9830 9836 9841 9847 9853 9859 9866 9871 9876 9881 9886 9892 9897 9904 9910 9916 9922 9928 9934 9941 9947 9954 9961 9968 9976 9983 9991 9998 10005 10013
9643 9645 9648 9651 9653 9654 9656 9659 9662 9665 9668 9671 9674 9677 9680 9683 9688 9694 9700 9704 9709 9715 9719 9723 9727 9731 9735 9739 9743 9748 9752 9757 9761 9765 9770 9775 9780 9785 9789 9795 9801 9806 9811 9817 9823 9829 9835 9841 9847 9854 9861 9866 9869 9873 9878 9884 9891 9897 9904 9910 9916 9922 9927 9933 9940 9946 9952 9959 9967 9974 9982 9989 9996 10003
9638 9640 9643 9645 9646 9648 9650 9654 9657 9660 9662 9665 9669 9672 9674 9678 9684 9689 9694 9699 9704 9709 9713 9717 9721 9725 9729 9733 9738 9742 9747 9751 9755 9760 9765 9770 9775 9779 9783 9789 9795 9800 9805 9811 9817 9823 9829 9836 9842 9849 9856 9859 9861 9865 9871 9878 9885 9891 9897 9903 9909 9915 9921 9927 9933 9939 9945 9951 9958 9965 9972 9979 9987 9995
9633 9636 9638 9640 9641 9643 9646 9649 9652 9655 9657 9660 9664 9667 9670 9674 9679 9684 9689 9694 9699 9703 9707 9711 9715 9719 9723 9728 9732 9737 9741 9746 9750 9755 9760 9765 9769 9773 9778 9783 9789 9794 9799 9805 9811 9818 9824 9831 9838 9844 9847 9850 9853 9859 9867 9873 9879 9885 9891 9897 9903 9908 9915 9921 9927 9932 9938 9944 9950 9956 9963 9970 9978 9985
9629 9631 9633 9634 9636 9638 9641 9644 9647 9650 9652 9655 9659 9662 9665 9669 9674 9679 9683 9688 9693 9698 9702 9706 9710 9714 9718 9722 9727 9731 9736 9740 9745 9750 9755 9760 9764 9768 9772 9778 9783 9788 9794 9799 9806 9813 9819 9825 9831 9835 9838 9842 9848 9856 9863 9869 9875 9880 9885 9890 9896 9901 9907 9913 9919 9925 9931 9937 9942 9948 9954 9961 9969 9976
9625 9626 9628 9629 9631 9634 9636 9639 9641 9644 9647 9649 9653 9656 9659 9663 9668 9673 9678 9683 9689 9693 9697 9700 9704 9708 9712 9717 9721 9725 9730 9735 9740 9745 9750 9755 9759 9763 9768 9773 9778 9783 9789 9795 9801 9807 9813 9818 9823 9828 9832 9837 9845 9852 9859 9865 9869 9873 9878 9883 9889 9894 9900 9905 9911 9917 9923 9929 9934 9940 9946 9952 9959 9965
9620 9622 9622 9624 9626 9629 9631 9633 9635 9638 9641 9644 9647 9650 9654 9659 9663 9668 9673 9678 9683 9687 9691 9695 9699 9703 9707 9712 9716 9720 9725 9730 9735 9740 9745 9750 9754 9758 9763 9768 9774 9779 9784 9790 9796 9802 9807 9812 9817 9822 9827 9833 9840 9848 9854 9859 9862 9866 9870 9876 9882 9888 9893 9898 9904 9909 9915 9920 9926 9932 9938 9944 9949 9955
9616 9617 9618 9619 9622 9624 9627 9628 9631 9633 9636 9639 9642 9646 9650 9655 9659 9663 9668 9673 9677 9681 9685 9689 9693 9697 9702 9706 9711 9716 9720 9726 9731 9736 9740 9745 9749 9754 9759 9764 9769 9774 9779 9785 9791 9796 9801 9806 9811 9816 9822 9828 9835 9842 9847 9850 9854 9858 9863 9868 9875 9881 9887 9892 9897 9902 9907 9912 9917 9923 9930 9936 9941 9947
9612 9613 9614 9616 9618 9621 9623 9625 9627 9630 9633 9636 9639 9643 9647 9651 9656 9660 9664 9669 9673 9677 9680 9684 9688 9693 9697 9702 9706 9711 9716 9721 9726 9731 9736 9740 9745 9749 9754 9759 9764 9769 9774 9780 9785 9791 9796 9801 9806 9810 9816 9822 9829 9835 9838 9842 9846 9852 9857 9863 9869 9875 9880 9885 9890 9895 9900 9905 9910 9915 9921 9926 9932 9938